Weather History for Irkutsk, Russia

Change the Weather History Date:

Monday, March 4, 2013

  Actual Average Record
Temperature  
Mean Temperature 33 °F -  
Max Temperature 43 °F - - ()
Min Temperature 23 °F - - ()
Degree Days  
Heating Degree Days 32    
Moisture  
Dew Point 18 °F    
Average Humidity 59    
Maximum Humidity 74    
Minimum Humidity 33    
Precipitation  
Precipitation 0.00 in - - ()
Sea Level Pressure  
Sea Level Pressure 29.73 in    
Wind  
Wind Speed 6 mph ()    
Max Wind Speed 13 mph    
Max Gust Speed -    
Visibility 4.6 miles    
Events Rain , Snow    
T = Trace of Precipitation, MM = Missing Value Source: Averaged Metar Reports

Daily Weather History Graph

Daily Weather History Graph

Search for Another Location

Airport:

Trip Planner

Search our weather history database for the weather conditions in past years. The results will help you decide how hot, cold, wet, or windy it might be!

Date:

Astronomy

Mar. 04, 2013 Rise Set
Actual Time 8:42 AM IRKT 7:46 PM IRKT
Civil Twilight 8:08 AM IRKT 8:20 PM IRKT
Nautical Twilight 7:29 AM IRKT 9:00 PM IRKT
Astronomical Twilight 6:49 AM IRKT 9:40 PM IRKT
Moon 2:45 AM IRKT (3/4) 11:29 AM IRKT (3/4)
Length of Visible Light 12h 12m
Length of Day
11h 04m
Waning Gibbous, 59% of the Moon is Illuminated
Mar 4
Waning Gibbous
Mar 5
Last Quarter
Mar 12
New
Mar 20
First Quarter
Mar 27
Full

Hourly Weather History & Observations

Time (IRKT) Temp. Windchill Dew Point Humidity Pressure Visibility Wind Dir Wind Speed Gust Speed Precip Events Conditions
12:00 AM 28.4 °F 18.7 °F 14.0 °F 55% 29.68 in - South 11.2 mph - N/A   Clear
12:30 AM 28.4 °F 19.9 °F 12.2 °F 51% 29.68 in - South 8.9 mph - N/A   Clear
1:00 AM 26.6 °F 19.2 °F 12.2 °F 55% 29.65 in - South 6.7 mph - N/A   Clear
1:30 AM 26.6 °F 21.3 °F 12.2 °F 55% 29.65 in - South 4.5 mph - N/A   Clear
2:00 AM 26.6 °F 19.2 °F 14.0 °F 59% 29.65 in - South 6.7 mph - N/A   Clear
2:30 AM 26.6 °F 19.2 °F 14.0 °F 59% 29.65 in - South 6.7 mph - N/A   Clear
3:00 AM 29 °F - 13 °F 38% 29.73 in 6 mi SE 11.2 mph - -   Overcast
3:00 AM 23.0 °F 14.9 °F 14.0 °F 68% 29.62 in - SSE 6.7 mph - N/A   Clear
3:30 AM 26.6 °F 19.2 °F 12.2 °F 55% 29.62 in - South 6.7 mph - N/A   Clear
4:00 AM 24.8 °F 19.2 °F 14.0 °F 64% 29.62 in - SSE 4.5 mph - N/A   Clear
4:30 AM 26.6 °F 21.3 °F 14.0 °F 59% 29.65 in - SSE 4.5 mph - N/A   Clear
5:00 AM 24.8 °F 17.1 °F 14.0 °F 64% 29.65 in - SSE 6.7 mph - N/A   Clear
5:30 AM 23.0 °F 14.9 °F 14.0 °F 68% 29.65 in - South 6.7 mph - N/A   Clear
6:00 AM 23.0 °F - 12.2 °F 63% 29.62 in - Variable 2.2 mph - N/A   Clear
6:30 AM 21.2 °F 15.0 °F 12.2 °F 68% 29.62 in - ESE 4.5 mph - N/A   Clear
7:00 AM 23.0 °F 17.1 °F 12.2 °F 63% 29.62 in - SE 4.5 mph - N/A   Clear
7:30 AM 23.0 °F 17.1 °F 14.0 °F 68% 29.62 in - SE 4.5 mph - N/A   Clear
8:00 AM 24.8 °F 17.1 °F 14.0 °F 64% 29.62 in - SSE 6.7 mph - N/A   Clear
8:30 AM 24.8 °F 19.2 °F 14.0 °F 64% 29.65 in - South 4.5 mph - N/A   Clear
9:00 AM 28 °F - 14 °F 41% 29.75 in 31 mi ESE 8.9 mph - -   Overcast
9:00 AM 23.0 °F - 15.8 °F 74% 29.65 in - SE 2.2 mph - N/A   Clear
9:30 AM 24.8 °F - 15.8 °F 69% 29.65 in - Variable 2.2 mph - N/A   Clear
10:00 AM 24.8 °F 19.2 °F 17.6 °F 74% 29.68 in - ESE 4.5 mph - N/A   Clear
10:30 AM 26.6 °F 19.2 °F 17.6 °F 69% 29.68 in - South 6.7 mph - N/A   Clear
11:00 AM 28.4 °F - 19.4 °F 69% 29.71 in - Variable 2.2 mph - N/A   Clear
11:30 AM 28.4 °F 23.4 °F 19.4 °F 69% 29.71 in - SSW 4.5 mph - N/A   Clear
12:00 PM 30.2 °F - 17.6 °F 60% 29.74 in - Variable 2.2 mph - N/A   Clear
12:30 PM 30.2 °F - 21.2 °F 69% 29.74 in - Variable 2.2 mph - N/A   Clear
1:00 PM 32.0 °F - 19.4 °F 60% 29.77 in - Calm Calm - N/A   Clear
1:30 PM 32.0 °F - 19.4 °F 60% 29.77 in 6.2 mi Variable 2.2 mph - N/A   Overcast
2:00 PM 33.8 °F 27.9 °F 21.2 °F 60% 29.77 in 6.2 mi SSW 6.7 mph - N/A   Overcast
2:30 PM 33.8 °F 27.9 °F 23.0 °F 65% 29.74 in 6.2 mi SE 6.7 mph - N/A   Overcast
3:00 PM 38 °F - 19 °F 33% 29.81 in 31 mi SE 4.5 mph - - Rain Light Rain Showers
3:00 PM 33.8 °F 29.7 °F 23.0 °F 65% 29.74 in - ESE 4.5 mph - N/A   Clear
3:30 PM 37.4 °F - 21.2 °F 52% 29.74 in - Variable 2.2 mph - N/A   Clear
4:00 PM 39.2 °F 36.0 °F 23.0 °F 52% 29.74 in - West 4.5 mph - N/A   Clear
4:30 PM 41.0 °F 38.1 °F 19.4 °F 42% 29.77 in - NW 4.5 mph - N/A   Clear
5:00 PM 42.8 °F - 17.6 °F 36% 29.74 in - NW 2.2 mph - N/A   Clear
5:30 PM 42.8 °F 40.2 °F 17.6 °F 36% 29.77 in - West 4.5 mph - N/A   Clear
6:00 PM 42.8 °F - 19.4 °F 39% 29.77 in - Variable 2.2 mph - N/A   Clear
6:30 PM 42.8 °F - 19.4 °F 39% 29.77 in - West 2.2 mph - N/A   Clear
7:00 PM 37.4 °F 30.9 °F 24.8 °F 60% 29.77 in 3.1 mi WNW 8.9 mph - N/A   Smoke
7:30 PM 37.4 °F 32.2 °F 24.8 °F 60% 29.77 in 3.1 mi NW 6.7 mph - N/A   Smoke
8:00 PM 35.6 °F 30.0 °F 24.8 °F 65% 29.80 in 2.2 mi NW 6.7 mph - N/A   Smoke
8:30 PM 35.6 °F 30.0 °F 23.0 °F 60% 29.80 in - WNW 6.7 mph - N/A   Clear
9:00 PM 36 °F - 26 °F 54% 29.89 in 6 mi Calm Calm - -   Partly Cloudy
9:00 PM 35.6 °F 30.0 °F 23.0 °F 60% 29.80 in - WNW 6.7 mph - N/A   Clear
9:30 PM 33.8 °F 27.9 °F 23.0 °F 65% 29.83 in 3.1 mi NW 6.7 mph - N/A   Smoke
10:00 PM 33.8 °F 27.9 °F 23.0 °F 65% 29.86 in - NW 6.7 mph - N/A   Clear
10:30 PM 33.8 °F 24.5 °F 24.8 °F 70% 29.89 in 3.1 mi NW 13.4 mph - N/A Snow Light Snow
11:00 PM 35.6 °F 28.7 °F 24.8 °F 65% 29.92 in 6.2 mi North 8.9 mph - N/A   Overcast
11:30 PM 35.6 °F 30.0 °F 26.6 °F 70% 29.92 in 3.7 mi West 6.7 mph - N/A Snow Light Snow Showers